Regional Weather Roundup
Issued by NWS

Home | Current Version | Previous Version | Text Only | Print | Product List | Glossary Off
Versions: 1 2 3 4 5 6 7 8 9 10 11 12 13 14 15 16 17 18 19 20 21 22 23 24 25 26 27 28 29 30 31 32 33 34 35 36 37 38 39 40 41 42 43 44 45 46 47 48 49 50

000
ASUS43 KFSD 260602
RWRSD

WEATHER ROUNDUP FOR SOUTH DAKOTA
NATIONAL WEATHER SERVICE SIOUX FALLS SD
100 AM CDT TUE SEP 26 2017

NOTE: "FAIR" INDICATES FEW OR NO CLOUDS BELOW 12,000 FEET WITH NO
SIGNIFICANT WEATHER AND/OR OBSTRUCTIONS TO VISIBILITY.


SDZ001>005-009-010-012>017-260700-
NORTHWEST AND NORTH CENTRAL SOUTH DAKOTA

CITY           SKY/WX    TMP DP  RH WIND       PRES   REMARKS
FAITH            N/A     44  44 100 S6        30.11S
MOBRIDGE       CLOUDY    49  45  86 CALM      30.09S
$$

SDZ012>016-024>037-041>051-057-063-072>074-260700-
SOUTHWEST AND SOUTH CENTRAL SOUTH DAKOTA

CITY           SKY/WX    TMP DP  RH WIND       PRES   REMARKS
RAPID CTY ARPT NOT AVBL
PIERRE         MOCLDY    48  44  86 NW5       30.09F
CUSTER         CLOUDY    40  37  89 S3        30.11S
ELLSWORTH AFB  MOCLDY    46  44  93 S9        30.10
PHILIP         MOCLDY    44  43  96 W3        30.12R
PINE RIDGE     MOCLDY    40  40 100 CALM      30.13S
SPEARFISH      CLOUDY    45  45 100 VRB3      30.09F
WINNER         CLOUDY    49  47  93 NW5       30.11S
$$

SDZ004>011-016>023-039-040-260700-
NORTHEAST SOUTH DAKOTA

CITY           SKY/WX    TMP DP  RH WIND       PRES   REMARKS
ABERDEEN       LGT RAIN  48  48 100 NW7       30.09S
WATERTOWN      LGT RAIN  48  48 100 N13       30.04R FOG
BROOKINGS      LGT RAIN  49  48  97 NW12      30.03R FOG
SISSETON         N/A     50  49  96 NW9       30.05R
$$

SDZ017-020-022-023-036>040-048>070-260700-
SOUTHEAST SOUTH DAKOTA

CITY           SKY/WX    TMP DP  RH WIND       PRES   REMARKS
SIOUX FALLS    LGT RAIN  52  52 100 NW9       30.01S FOG
HURON          LGT RAIN  49  48  97 NW9       30.07R
MITCHELL       LGT RAIN  50  49  96 NW6       30.07S
YANKTON        RAIN      52  51  97 NW10      30.03R
$$

ABBREVIATIONS USED IN REMARKS
   TC - TEMPERATURE IN CELSIUS
  WCI - WIND CHILL INDEX
   HX - HEAT INDEX
  VSB - VISIBILITY





USA.gov is the U.S. government's official web portal to all federal, state and local government web resources and services.